Weather History for Philip, SD

Change the Weather History Date:

Sunday, February 16, 2014

  Actual Average Record
Temperature  
Mean Temperature 40 °F 26 °F  
Max Temperature 57 °F 39 °F 71 °F (2011)
Min Temperature 23 °F 13 °F -24 °F (1979)
Degree Days  
Heating Degree Days 25 39  
Month to date heating degree days 825 649  
Since 1 July heating degree days 5093 4914  
Cooling Degree Days 0 0  
Month to date cooling degree days 0 0  
Year to date cooling degree days 0 0  
Moisture  
Dew Point 27 °F    
Average Humidity 73    
Maximum Humidity 100    
Minimum Humidity 46    
Precipitation  
Precipitation 0.02 in 0.02 in 0.10 in (1988)
Month to date precipitation 0.17 0.20  
Year to date precipitation 0.28 0.50  
Sea Level Pressure  
Sea Level Pressure 29.76 in    
Wind  
Wind Speed 13 mph (East)    
Max Wind Speed 33 mph    
Max Gust Speed 43 mph    
Visibility 6 miles    
Events Snow    
T = Trace of Precipitation, MM = Missing Value Source: NWS Daily Summary

Daily Weather History Graph

Daily Weather History Graph

Search for Another Location

Airport:

Trip Planner

Search our weather history database for the weather conditions in past years. The results will help you decide how hot, cold, wet, or windy it might be!

Date:

Astronomy

Feb. 16, 2014 Rise Set
Actual Time 6:44 AM MST 5:17 PM MST
Civil Twilight 6:14 AM MST 5:47 PM MST
Nautical Twilight 5:40 AM MST 6:20 PM MST
Astronomical Twilight 5:07 AM MST 6:54 PM MST
Moon 7:22 PM MST (2/16) 7:09 AM MST (2/16)
Length of Visible Light 11h 32m
Length of Day
10h 33m
Full, 97% of the Moon is Illuminated
Feb 16
Full
Feb 22
Last Quarter
Mar 1
New
Mar 8
First Quarter
Mar 16
Full

Hourly Weather History & Observations

Time (MST) Temp. Windchill Dew Point Humidity Pressure Visibility Wind Dir Wind Speed Gust Speed Precip Events Conditions
12:55 AM 24.1 °F 13.1 °F 21.9 °F 91% 30.04 in 4.0 mi ESE 11.5 mph - N/A   Overcast
1:55 AM 24.1 °F 15.2 °F 21.0 °F 88% 30.02 in 4.0 mi East 8.1 mph - N/A   Overcast
2:09 AM 24.8 °F 14.6 °F 21.2 °F 86% 29.96 in 2.5 mi East 10.4 mph - N/A   Overcast
2:30 AM 24.8 °F 14.0 °F 21.2 °F 86% 29.94 in 1.2 mi East 11.5 mph - 0.00 in   Overcast
2:55 AM 24.1 °F 12.0 °F 21.9 °F 91% 29.96 in 0.8 mi ESE 13.8 mph - 0.00 in   Mist
3:06 AM 24.8 °F 12.9 °F 21.2 °F 86% 29.91 in 1.2 mi ESE 13.8 mph - N/A   Overcast
3:19 AM 24.8 °F 13.4 °F 21.2 °F 86% 29.91 in 2.0 mi East 12.7 mph - N/A   Overcast
3:55 AM 24.1 °F 12.5 °F 21.9 °F 91% 29.94 in 2.0 mi ESE 12.7 mph - N/A   Overcast
4:14 AM 24.8 °F 11.9 °F 23.0 °F 93% 29.87 in 1.8 mi East 16.1 mph - N/A   Overcast
4:55 AM 25.0 °F 13.1 °F 23.0 °F 92% 29.90 in 1.8 mi East 13.8 mph - N/A   Overcast
5:27 AM 24.8 °F 12.4 °F 23.0 °F 93% 29.83 in 2.5 mi East 15.0 mph - N/A   Overcast
5:55 AM 25.0 °F 12.6 °F 23.0 °F 92% 29.87 in 2.5 mi East 15.0 mph - N/A   Overcast
6:08 AM 24.8 °F 11.9 °F 21.2 °F 86% 29.80 in 3.0 mi ESE 16.1 mph - N/A   Overcast
6:55 AM 25.0 °F 11.7 °F 21.9 °F 88% 29.83 in 5.0 mi ESE 17.3 mph - N/A   Overcast
7:46 AM 26.6 °F 15.7 °F 24.8 °F 93% 29.74 in 6.0 mi ESE 12.7 mph - N/A   Overcast
7:55 AM 27.0 °F 15.2 °F 25.0 °F 92% 29.80 in 6.0 mi ESE 15.0 mph - N/A   Mostly Cloudy
8:18 AM 28.4 °F 16.6 °F 24.8 °F 86% 29.73 in 8.0 mi ESE 16.1 mph - N/A   Scattered Clouds
8:55 AM 30.0 °F 19.1 °F 27.0 °F 88% 29.75 in 10.0 mi ESE 15.0 mph 21.9 mph N/A   Partly Cloudy
9:55 AM 36.0 °F 26.3 °F 28.0 °F 73% 29.71 in 10.0 mi SE 16.1 mph 21.9 mph N/A   Clear
10:55 AM 44.1 °F 36.5 °F 30.0 °F 58% 29.65 in 10.0 mi SE 17.3 mph 23.0 mph N/A   Clear
11:55 AM 50.0 °F - 30.9 °F 48% 29.59 in 10.0 mi SE 13.8 mph - N/A   Clear
12:55 PM 54.0 °F - 33.1 °F 45% 29.52 in 10.0 mi SSE 11.5 mph - N/A   Clear
1:55 PM 54.0 °F - 33.1 °F 45% 29.49 in 10.0 mi SSE 10.4 mph - N/A   Clear
2:55 PM 54.0 °F - 33.1 °F 45% 29.48 in 10.0 mi ESE 4.6 mph - N/A   Clear
3:55 PM 48.9 °F - 34.0 °F 56% 29.48 in 10.0 mi East 3.5 mph - N/A   Clear
4:55 PM 46.9 °F - 33.1 °F 59% 29.48 in 10.0 mi NE 4.6 mph - N/A   Clear
5:55 PM 39.0 °F 31.4 °F 30.9 °F 73% 29.50 in 10.0 mi North 12.7 mph 16.1 mph N/A   Clear
6:55 PM 35.1 °F 24.5 °F 28.9 °F 78% 29.59 in 10.0 mi NNW 18.4 mph 31.1 mph N/A   Mostly Cloudy
7:55 PM 33.1 °F 20.3 °F 27.0 °F 78% 29.65 in 10.0 mi NW 24.2 mph 34.5 mph N/A   Clear
8:33 PM 33.8 °F 20.5 °F 28.4 °F 81% 29.67 in 10.0 mi NW 27.6 mph 35.7 mph N/A   Mostly Cloudy
8:55 PM 34.0 °F 20.5 °F 30.0 °F 85% 29.74 in 4.0 mi NW 28.8 mph 41.4 mph 0.00 in Snow Light Snow
8:59 PM 33.8 °F 20.8 °F 30.2 °F 87% 29.69 in 2.5 mi NW 26.5 mph 38.0 mph 0.00 in Snow Light Snow
9:22 PM 33.8 °F 22.5 °F 33.8 °F 100% 29.73 in 5.0 mi NW 19.6 mph 31.1 mph 0.00 in Snow Light Snow
9:34 PM 33.8 °F 23.9 °F 33.8 °F 100% 29.74 in 6.0 mi NW 15.0 mph - 0.01 in Snow Light Snow
9:48 PM 33.8 °F 24.3 °F 32.0 °F 93% 29.75 in 9.0 mi NW 13.8 mph 25.3 mph 0.02 in Snow Light Snow
9:55 PM 34.0 °F 24.2 °F 33.1 °F 96% 29.79 in 9.0 mi NW 15.0 mph - 0.02 in Snow Light Snow
10:55 PM 34.0 °F 28.0 °F 33.1 °F 96% 29.81 in 10.0 mi NW 6.9 mph - 0.00 in   Overcast
11:55 PM 34.0 °F 26.0 °F 32.0 °F 92% 29.83 in 10.0 mi West 10.4 mph - N/A   Clear